Location: Bühler
(48.9575°N, 9.9654°E)
Time: 20:38:30
(UTC+00:00)

Daily predictions for brighter satellites

Satellite Brightness Start Highest point End
(mag) Time Altitude Azimuth Time Altitude Azimuth Time Altitude Azimuth
Thor Agena Rocket 4.2 17:05:25 10° S 17:10:27 62° WSW 17:15:36 10° NNW
Sich 1 Rocket 3.7 17:10:52 10° N 17:15:24 60° ENE 17:19:54 10° SSE
GP-B 3.2 17:12:13 10° S 17:16:35 82° W 17:20:59 10° N
ATLAS 2AS CENTAUR R/B 4.1 17:10:44 10° WNW 17:16:37 29° NNW 17:22:26 10° NE
Cosmos 2123 Rocket 4.5 17:11:48 10° SSW 17:18:06 69° WNW 17:24:24 10° N
SKYMED 2 3.7 17:14:44 10° NNE 17:19:01 54° E 17:23:15 10° S
Resurs 1-3 3.6 17:15:56 10° SSE 17:20:08 56° ENE 17:24:21 10° N
Lacrosse 5 rocket 2.4 17:21:10 10° W 17:24:15 29° NNW 17:27:27 10° NE
Resurs 01 Rocket 2.3 17:23:49 10° SE 17:27:43 32° ENE 17:31:39 10° N
Cosmos 1782 3.9 17:29:32 10° NNE 17:32:08 19° ENE 17:34:44 10° ESE
SPOT 1/Viking Rocket 3.9 17:28:46 10° S 17:33:52 72° WSW 17:39:01 10° NNW
Cosmos 1674 Rocket 4.0 17:29:36 10° SSW 17:33:58 69° W 17:38:24 10° N
USA 267 3.4 17:31:04 10° NE 17:37:38 78° NNW 17:44:09 10° WSW
CARTOSAT-1 3.6 17:34:08 10° SE 17:38:11 50° ENE 17:42:16 10° N
Radarsat Rocket 4.0 17:35:32 10° SSE 17:41:23 73° ENE 17:47:47 10° NNW
ARIANE 6 FM1 Upper Stage 3.7 17:39:52 10° NNW 17:43:19 27° NNE 17:45:29 17° ENE
SL-19 R/B 4.4 17:37:42 10° SSE 17:43:43 62° ENE 17:49:29 10° N
Cosmos 2297 Rocket 2.2 17:41:07 10° SSW 17:46:46 78° ESE 17:52:27 10° NNE
Cosmos 1447 Rocket 4.4 17:41:57 10° S 17:48:04 82° E 17:54:15 10° N
RESURS DK-1 4.4 17:47:54 10° NNE 17:49:02 11° NE 17:49:28 11° NE
SPOT 5 4.0 17:52:21 16° ESE 17:55:08 26° ENE 17:59:18 10° N
Cosmos 2058 4.4 17:52:52 10° SE 17:54:19 17° ESE 17:54:19 17° ESE
SeaSat 1 3.4 17:52:11 10° S 17:56:54 49° WSW 18:01:40 10° NW
SJ-6B 2.9 17:54:52 10° SE 17:58:04 38° ENE 18:01:18 10° N
IRAS Rocket 4.4 17:53:06 10° SE 17:58:32 54° ENE 18:04:01 10° N
Tiangong -0.1 17:56:38 10° SW 17:58:58 19° S 18:00:16 15° SE
PSLV R/B 3.4 17:58:48 10° SSE 18:02:55 89° WSW 18:07:02 10° NNW
Cosmos 2219 4.5 17:59:51 10° SE 18:03:33 20° ESE 18:03:33 20° ESE
Cosmos 2228 2.9 18:00:13 10° N 18:04:21 57° ENE 18:08:29 10° SSE
COSMO-SKYMED 1 2.4 18:00:46 10° NNE 18:04:54 88° W 18:09:00 10° SSW
Meteor 1-31 Rocket 3.9 18:06:27 22° NE 18:06:27 22° NE 18:08:31 10° NNE
NOSS 3-3 (C) 4.3 18:00:54 10° WSW 18:06:10 59° NW 18:12:35 10° NE
Cosmos 1544 Rocket 4.2 18:03:07 10° N 18:07:04 32° ENE 18:08:59 23° ESE
Cosmos 1570 Rocket 4.0 18:02:10 10° SSW 18:07:27 90° E 18:12:44 10° NNE
CZ-2D R/B 4.0 18:03:57 10° S 18:07:48 57° W 18:11:47 10° NNW
YAOGAN 3 4.4 18:04:02 10° SSE 18:08:14 83° ENE 18:12:28 10° NNW
Cosmos 2344 3.9 18:02:14 10° S 18:09:30 40° ESE 18:14:29 17° ENE
YAOGAN 1 3.7 18:07:55 10° S 18:12:00 46° W 18:16:08 10° NNW
Cosmos 1455 Rocket 3.3 18:07:47 10° NNW 18:12:03 69° W 18:16:19 10° S
CZ-4B R/B 4.4 18:12:55 31° E 18:13:30 33° ENE 18:17:00 10° N
Cosmos 2263 Rocket 2.7 18:08:25 10° S 18:13:30 35° ESE 18:16:41 20° NE
Cosmos 1975 Rocket 2.9 18:10:18 10° S 18:14:36 64° E 18:18:52 10° NNE
USA 234 4.4 18:09:30 10° SSE 18:15:36 41° SW 18:21:45 10° WNW
Cosmos 2034 Rocket 4.1 18:09:56 10° N 18:15:57 50° ENE 18:21:58 10° SSE
DMSP B5D1-3 4.4 18:10:59 10° NNE 18:16:05 69° ESE 18:21:11 10° S
Cosmos 1072 Rocket 4.4 18:10:41 10° N 18:16:57 80° E 18:23:06 10° SSE
Cosmos 2237 Rocket 3.2 18:15:32 10° NW 18:20:59 48° WSW 18:26:24 10° S
Cosmos 773 Rocket 4.0 18:18:37 10° SSW 18:23:54 85° WNW 18:29:13 10° NNE
NOAA 6 4.5 18:19:39 10° S 18:24:45 63° WSW 18:29:54 10° NNW
DNEPR-1 R/B 4.1 18:20:35 10° NW 18:25:29 81° SW 18:30:45 13° SSE
Terra 3.5 18:31:23 18° NE 18:31:23 18° NE 18:33:21 10° NNE
Cosmos 2208 Rocket 4.0 18:24:36 10° SSW 18:29:51 83° WNW 18:35:13 10° NNE
Cosmos 1346 Rocket 2.4 18:35:02 10° S 18:38:39 84° E 18:40:09 34° NNE
Cosmos 44 Rocket 3.5 18:34:18 10° SW 18:39:13 71° NW 18:42:35 21° NNE
TSX-5 4.1 18:36:13 10° NNW 18:41:25 63° NE 18:42:13 53° ESE
Cosmos 1602 4.2 18:39:41 10° SSW 18:42:19 40° WNW 18:43:14 29° NNW
Cosmos 1464 Rocket 4.2 18:36:40 10° NNW 18:43:01 75° W 18:49:17 10° S
CZ-4C R/B 3.6 18:40:09 10° W 18:44:19 29° NNW 18:48:40 13° NNE
Cosmos 2227 Rocket 2.2 18:40:33 10° SSW 18:46:12 86° WNW 18:51:30 12° NNE
SL-16 R/B 2.1 18:42:07 10° NNW 18:47:48 87° ENE 18:50:49 29° SSE
Helios 1A Rocket 4.1 18:49:53 23° SSW 18:49:53 23° SSW 18:51:16 10° SSW
CZ-4 R/B 2.8 19:02:50 25° N 19:02:50 25° N 19:04:32 10° N
Lacrosse 5 rocket 2.9 18:59:00 10° NW 19:01:16 22° N 19:01:16 22° N
Resurs 01 Rocket 3.5 19:00:11 10° SSW 19:04:04 31° W 19:08:00 10° NNW
Cosmos 1782 4.2 19:03:42 10° NNW 19:06:59 34° W 19:09:32 15° SSW
BREEZE-M DEB (TANK) 4.1 19:03:01 10° SW 19:07:28 56° SE 19:11:13 38° E
ATLAS 2AS CENTAUR R/B 4.1 19:04:19 10° NW 19:09:43 24° N 19:11:46 21° NNE
DMSP 5D-2 F-14 4.5 19:10:52 71° E 19:11:03 72° ENE 19:16:28 10° N
CZ-4B R/B 3.4 19:12:00 51° NNE 19:12:00 51° NNE 19:16:20 10° N
Gbstr 26 Del rocket 4.3 19:06:41 10° SW 19:13:34 66° SSE 19:15:03 55° E
CSL-04 Debris 4.2 19:12:11 37° S 19:14:28 80° WSW 19:19:55 10° NNW
CZ-4B DEB 4.0 19:14:53 63° SSE 19:15:50 87° ENE 19:21:20 10° NNW
ERS-1 Rocket 3.8 19:20:01 39° N 19:20:01 39° N 19:23:18 10° N
CSL-04 Rocket 3.8 19:17:14 32° S 19:19:41 67° WSW 19:24:58 10° NNW
USA 267 3.9 19:17:48 33° NE 19:20:15 47° N 19:26:26 10° W
ARIANE 6 FM1 Upper Stage 3.7 19:18:40 10° NW 19:21:31 41° WNW 19:21:31 41° WNW
RESURS DK-1 4.4 19:23:22 10° NNW 19:24:45 20° NNW 19:24:45 20° NNW
Cosmos 2297 Rocket 4.2 19:26:51 10° W 19:31:26 24° NW 19:36:02 10° N
SPOT 5 3.6 19:31:23 40° SW 19:32:44 51° W 19:37:43 10° NNW
Cosmos 1943 3.4 19:28:51 10° NNW 19:33:43 64° N 19:33:43 64° N
Okean O Rocket 4.2 19:39:04 12° N 19:39:04 12° N 19:39:22 10° N
Tsikada Rocket 4.0 19:29:15 10° SSW 19:35:24 76° W 19:41:37 10° N
Gblst 52 Del rocket 4.4 19:30:48 10° WNW 19:38:07 85° NNE 19:38:18 84° ENE
MOS 1 4.3 19:38:44 76° NW 19:38:44 76° NW 19:44:00 10° NNW
Cosmos 2219 3.9 19:41:33 10° SSW 19:45:34 47° SW 19:45:34 47° SW
ADEOS 4.4 19:53:50 45° NW 19:53:50 45° NW 19:57:34 10° NNW
Cosmos 2263 Rocket 3.1 19:51:51 10° SW 19:57:17 46° NW 19:58:28 40° NNW
Terra 4.0 20:10:00 21° NNW 20:10:00 21° NNW 20:11:37 10° NNW
Cosmos 2344 3.9 20:16:15 10° WSW 20:23:35 54° NW 20:24:32 51° N
Cosmos 2227 Rocket 4.4 20:26:53 10° W 20:31:05 21° NW 20:33:22 17° N
CZ-4C R/B 4.3 20:30:19 10° NW 20:33:37 20° N 20:33:37 20° N
ATLAS 2AS CENTAUR R/B 4.3 20:55:56 10° NW 20:59:11 27° NNW 20:59:11 27° NNW
